Cactus Peak, Santa Catalina Island Weather observations

Data are for 10 minute period ending at time listed.
 Day   Time   Solar   Ave.   Ave.  Ave.  Vector    Max.   Stn.    Total
  of    of     Rad.   Air    Rel.  Wind   Wind     Wind   Baro.  Precip.
Year   Day            Temp.  Hum.  Speed  Dir.     Gust   Pres.         
2024   (PST)   W/m2    F      %     mph   deg.      mph    mb.     in.  
------------------------------------------------------------------------
 150   11:10  725.0    57   85.7     9    184.5    13.7    999.0   0.00  
 150   11:20  928.0    58   84.8     9    178.8    12.5    999.0   0.00  
 150   11:30  839.0    57   85.8     9    180.5    12.5    999.0   0.00  
 150   11:40  886.0    57   86.4     9    179.7    13.1    999.0   0.00  
 150   11:50  923.0    58   84.8     8    177.4    13.1    999.0   0.00  
 150   12:00  909.0    58   84.9     9    183.7    13.1    999.0   0.00  
 150   12:10  792.0    58   84.8     9    184.3    13.7    999.0   0.00  
 150   12:20  789.0    58   85.1    10    185.7    14.3    999.0   0.00  
 150   12:30  854.0    58   83.9     9    187.5    13.7    999.0   0.00  
 150   12:40  763.0    58   84.4     9    192.4    14.9    999.0   0.00  
 150   12:50  788.0    57   85.9     8    188.5    11.9    999.0   0.00  
 150   13:00  673.0    58   83.7     8    189.4    12.5    999.0   0.00  
 150   13:10  752.0    59   81.1     6    222.5    11.9    999.0   0.00  
 150   13:20  840.0    62   74.5     5    268.6     9.6    999.0   0.00  
 150   13:30  726.0    62   76.4     8    200.9    12.5    999.0   0.00  
 150   13:40  758.0    60   79.6     9    190.0    15.5    999.0   0.00  
 150   13:50  821.0    60   79.6     8    218.5    12.5    999.0   0.00  
 150   14:00  747.0    60   80.5     8    228.2    11.9    999.0   0.00  
 150   14:10  672.0    60   79.2     6    248.6    10.2    999.0   0.00  
 150   14:20  710.0    61   78.2     6    282.3     9.0    999.0   0.00  
 150   14:30  709.0    61   77.5     7    309.8    10.8    999.0   0.00  
 150   14:40  680.0    61   76.6     7    333.2    11.9    999.0   0.00  
 150   14:50  690.0    61   77.1     8    330.8    12.5    999.0   0.00  
 150   15:00  664.0    61   78.0     9    340.2    13.7    999.0   0.00  
 150   15:10  637.0    60   78.6     9    348.6    11.9    999.0   0.00  
 150   15:20  577.0    60   79.7     9    342.9    13.1    999.0   0.00  
 150   15:30  518.0    60   77.9     9    329.1    11.9    999.0   0.00  
 150   15:40  490.0    60   79.4     8    329.4    11.3    999.0   0.00  
 150   15:50  492.0    60   78.9     8    320.9    11.3    999.0   0.00  
 150   16:00  478.0    60   80.3     8    317.8    11.3    999.0   0.00  
 150   16:10  273.0    59   83.8     8    334.6    11.9    999.0   0.00  
 150   16:20  405.0    58   84.8     8    300.3    10.2    999.0   0.00  
 150   16:30  327.0    58   84.9     7    308.5    10.2    999.0   0.00  
 150   16:40  296.0    58   85.0     8    314.6    11.3    999.0   0.00  
 150   16:50  314.0    58   84.5     8    326.3    10.2    999.0   0.00  
 150   17:00  322.0    58   82.8     7    316.2     9.6    999.0   0.00  
 150   17:10  288.0    59   80.6     5    315.4     7.8    999.0   0.00  
 150   17:20  258.0    60   79.0     4    328.7     6.6    999.0   0.00  
 150   17:30  228.0    60   77.9     4    268.4     5.4    999.0   0.00  
 150   17:40  199.0    58   82.2     4    253.6     6.0    999.0   0.00  
 150   17:50  170.0    58   81.1     4    318.6     5.4    999.0   0.00  
 150   18:00  142.0    58   80.8     4    345.3     6.0    999.0   0.00  
 150   18:10  114.0    58   83.6     5      2.6     7.2    999.0   0.00  
 150   18:20   87.0    56   87.4     6    352.7     7.2    999.0   0.00  
 150   18:30   57.0    55   89.1     4      5.1     6.0    999.0   0.00  
 150   18:40   34.0    54   91.1     4      7.7     5.4    999.0   0.00  
 150   18:50   16.0    54   93.1     2      7.1     4.8    999.0   0.00  
 150   19:00    6.0    53   94.4     2    161.3     4.2    999.0   0.00  
 150   19:10    3.0    52   95.6     3    175.9     4.2    999.0   0.00  
 150   19:20    0.0    52   96.9     1    191.7     3.0    999.0   0.00  
 150   19:30    0.0    52   97.4     1    345.1     3.0    999.0   0.00  
 150   19:40    0.0    52   97.5     1    358.9     3.0    999.0   0.00  
 150   19:50    0.0    52   97.5     1    198.5     2.4    999.0   0.00  
 150   20:00    0.0    52   97.6     1    168.9     3.6    999.0   0.00  
 150   20:10    0.0    52   97.8     2    167.5     4.2    999.0   0.00  
 150   20:20    0.0    52   98.2     2    104.0     3.6    999.0   0.00  
 150   20:30    0.0    52   98.5     2    124.4     4.2    999.0   0.00  
 150   20:40    0.0    52   98.5     2     84.4     3.6    999.0   0.00  
 150   20:50    0.0    52   98.8     3    160.4     4.2    999.0   0.00  
 150   21:00    0.0    52   98.9     2    171.4     3.6    999.0   0.00  
 150   21:10    0.0    52   98.9     2     86.4     4.2    999.0   0.00  
 150   21:20    0.0    52   99.0     2    151.9     4.2    999.0   0.00  
 150   21:30    0.0    52   99.1     2     96.0     4.2    999.0   0.00  
 150   21:40    0.0    52   99.3     3    101.7     4.2    999.0   0.00  
 150   21:50    0.0    52   99.4     4     60.5     6.6    999.0   0.00  
 150   22:00    0.0    52   99.5     3     64.9     5.4    999.0   0.00  
 150   22:10    0.0    52   99.5     2     78.0     4.8    999.0   0.00  
 150   22:20    0.0    52   99.5     3     88.9     4.2    999.0   0.00  
 150   22:30    0.0    52   99.5     3     79.2     5.4    999.0   0.00  
 150   22:40    0.0    52   99.6     3     78.5     5.4    999.0   0.00  
 150   22:50    0.0    52   99.7     3     62.4     4.8    999.0   0.00  
 150   23:00    0.0    52   99.6     4     40.5     6.6    999.0   0.00  
 150   23:10    0.0    52   99.7     4     59.3     6.6    999.0   0.00  
 150   23:20    0.0    52   99.7     4     54.7     6.6    999.0   0.00  
 150   23:30    0.0    52   99.8     2    129.1     4.8    999.0   0.00  
 150   23:40    0.0    52   99.8     3    126.2     4.8    999.0   0.00  
 150   23:50    0.0    52   99.8     2    102.0     4.8    999.0   0.00  
 151    0:00    0.0    52   99.8     2     95.8     4.8    999.0   0.00  
 151    0:10    0.0    52   99.9     2     87.0     4.2    999.0   0.00  
 151    0:20    0.0    52   99.9     3     50.0     4.2    999.0   0.00  
 151    0:30    0.0    52   99.9     4     32.7     7.2    999.0   0.00  
 151    0:40    0.0    52   99.9     4     36.8     6.0    999.0   0.00  
 151    0:50    0.0    52  100.0     4     39.9     6.6    999.0   0.00  
 151    1:00    0.0    52  100.0     4     36.1     6.6    999.0   0.00  
 151    1:10    0.0    51  100.0     3     52.9     6.0    999.0   0.00  
 151    1:20    0.0    51  100.0     2     95.0     4.2    999.0   0.00  
 151    1:30    0.0    51  100.0     1    103.6     4.8    999.0   0.00  
 151    1:40    0.0    51  100.0     3    127.2     4.8    999.0   0.00  
 151    1:50    0.0    51  100.0     3    152.9     6.6    999.0   0.00  
 151    2:00    0.0    51  100.0     4    156.3     7.2    999.0   0.00  
 151    2:10    0.0    51  100.0     3    152.9     5.4    999.0   0.00  
 151    2:20    0.0    51  100.0     4    151.7     6.0    999.0   0.00  
 151    2:30    0.0    51  100.0     4    161.7     7.2    999.0   0.00  
 151    2:40    0.0    51  100.0     4    153.7     6.6    999.0   0.00  
 151    2:50    0.0    51  100.0     3    153.1     6.0    999.0   0.00  
 151    3:00    0.0    51  100.0     3    156.0     4.8    999.0   0.00  
 151    3:10    0.0    51  100.0     3    139.0     5.4    999.0   0.00  
 151    3:20    0.0    51  100.0     3    143.5     6.0    999.0   0.00  
 151    3:30    0.0    51  100.0     2    152.2     6.0    999.0   0.00  
 151    3:40    0.0    51  100.0     3    148.0     6.0    999.0   0.00  
 151    3:50    0.0    52  100.0     4    142.3     7.8    999.0   0.00  
 151    4:00    0.0    51  100.0     4    155.4     6.6    999.0   0.00  
 151    4:10    0.0    51  100.0     3    126.6     6.0    999.0   0.00  
 151    4:20    0.0    51  100.0     2     97.3     5.4    999.0   0.00  
 151    4:30    0.0    51  100.0     3    136.4     4.8    999.0   0.00  
 151    4:40    0.0    51  100.0     2    139.7     6.6    999.0   0.00  
 151    4:50    1.0    51  100.0     3    142.6     6.0    999.0   0.00  
 151    5:00    6.0    51  100.0     4    156.7     7.2    999.0   0.00  
 151    5:10   11.0    51  100.0     4    157.5     6.6    999.0   0.00  
 151    5:20   19.0    51  100.0     3    145.6     6.6    999.0   0.00  
 151    5:30   28.0    51  100.0     2    136.4     5.4    999.0   0.00  
 151    5:40   35.0    52  100.0     3    147.4     7.2    999.0   0.00  
 151    5:50   45.0    52  100.0     3    148.5     6.0    999.0   0.00  
 151    6:00   59.0    52  100.0     3    139.3     7.2    999.0   0.00  
 151    6:10   74.0    52  100.0     2    111.2     6.6    999.0   0.00  
 151    6:20   92.0    52  100.0     4    138.9     6.6    999.0   0.00  
 151    6:30  108.0    52  100.0     4    136.4     7.8    999.0   0.00  
 151    6:40   97.0    52  100.0     3    144.7     6.6    999.0   0.00  
 151    6:50  112.0    52  100.0     3    138.2     6.6    999.0   0.00  
 151    7:00  130.0    52  100.0     3    148.1     7.8    999.0   0.00  
 151    7:10  132.0    52  100.0     4    140.2     7.2    999.0   0.00  
 151    7:20  149.0    53  100.0     5    167.6     7.8    999.0   0.00  
 151    7:30  160.0    53  100.0     4    159.7     7.2    999.0   0.00  
 151    7:40  175.0    53  100.0     2    116.9     4.8    999.0   0.00  
 151    7:50  209.0    54  100.0     3    112.5     6.0    999.0   0.00  
 151    8:00  213.0    54  100.0     3    128.7     6.6    999.0   0.00  
 151    8:10  239.0    54  100.0     4    149.5     7.2    999.0   0.00  
 151    8:20  233.0    54  100.0     5    150.0     8.4    999.0   0.00  
 151    8:30  250.0    55  100.0     3    135.7     7.2    999.0   0.00  
 151    8:40  266.0    56   99.8     3    112.9     6.0    999.0   0.00  
 151    8:50  280.0    56   98.7     4     95.5     9.6    999.0   0.00  
 151    9:00  447.0    56   97.9     6    132.0    10.2    999.0   0.00  
 151    9:10  646.0    57   94.5     5    126.1     8.4    999.0   0.00  
 151    9:20  724.0    59   89.4     5    110.3     9.0    999.0   0.00  
 151    9:30  732.0    60   86.1     5     75.3     8.4    999.0   0.00  
 151    9:40  751.0    61   84.8     5     37.3     7.8    999.0   0.00  
 151    9:50  772.0    62   79.6     5     42.8     8.4    999.0   0.00  
 151   10:00  787.0    63   76.7     6     10.6    10.2    999.0   0.00  
 151   10:10  803.0    64   75.4     7      8.0    11.3    999.0   0.00  
 151   10:20  820.0    63   76.3     6    358.8    10.8    999.0   0.00  
 151   10:30  840.0    64   72.6     4     61.6    10.8    999.0   0.00  
 151   10:40  855.0    64   72.8     6    293.4    13.7    999.0   0.00  
 151   10:50  861.0    63   73.8     5    252.6     9.0    999.0   0.00  
 151   11:00  870.0    63   74.3     6    184.7    11.9    999.0   0.00  

Return to Cactus Peak graphs page.


Western Regional Climate Center,wrcc@dri.edu